Anoka County, MN

4:02 PM CST on January 23, 2018 (GMT -0600)
Anoka County / Blaine Airport

Weather History for KANE - October, 2013

Change the Weather History Date:

Wednesday, October 2, 2013

  Actual Average Record
Temperature  
Mean Temperature 58 °F -  
Max Temperature 75 °F 61 °F 86 °F (2001)
Min Temperature 42 °F 40 °F 23 °F (2003)
Degree Days  
Heating Degree Days 6    
Growing Degree Days 8 (Base 50)    
Moisture  
Dew Point 44 °F    
Average Humidity 74    
Maximum Humidity 94    
Minimum Humidity 22    
Precipitation  
Precipitation 0.61 in - - ()
Sea Level Pressure  
Sea Level Pressure 29.98 in    
Wind  
Wind Speed 3 mph (ESE)    
Max Wind Speed 18 mph    
Max Gust Speed 23 mph    
Visibility 10 miles    
Events Rain , Thunderstorm    
Averages and records for this station are not official NWS values.
T = Trace of Precipitation, MM = Missing Value Source: NWS Daily Summary

Daily Weather History Graph

Daily Weather History Graph

Search for Another Location

Airport or City:

Trip Planner

Search our weather history database for the weather conditions in past years. The results will help you decide how hot, cold, wet, or windy it might be!

Date:

Astronomy

Oct. 02, 2013 Rise Set
Actual Time 7:12 AM CDT 6:50 PM CDT
Civil Twilight 6:43 AM CDT 7:20 PM CDT
Nautical Twilight 6:09 AM CDT 7:54 PM CDT
Astronomical Twilight 5:34 AM CDT 8:28 PM CDT
Moon 4:40 AM CDT (10/2) 5:30 PM CDT (10/2)
Length of Visible Light 12h 37m
Length of Day
11h 38m
Waning Crescent, 6% of the Moon is Illuminated
Oct 2
Waning Crescent
Oct 4
New
Oct 11
First Quarter
Oct 18
Full
Oct 26
Last Quarter

Hourly Weather History & Observations

Time (CDT) Temp. Dew Point Humidity Pressure Visibility Wind Dir Wind Speed Gust Speed Precip Events Conditions
12:13 AM 48.2 °F 42.8 °F 82% 29.99 in 10.0 mi Calm Calm - N/A   Clear
12:34 AM 48.2 °F 42.8 °F 82% 30.00 in 10.0 mi Calm Calm - N/A   Clear
12:54 AM 48.2 °F 42.8 °F 82% 30.00 in 10.0 mi Calm Calm - N/A   Clear
1:13 AM 48.2 °F 42.8 °F 82% 30.01 in 10.0 mi Calm Calm - N/A   Clear
1:34 AM 46.4 °F 41.0 °F 81% 30.01 in 10.0 mi Calm Calm - N/A   Clear
1:54 AM 46.4 °F 39.2 °F 76% 30.01 in 10.0 mi Calm Calm - N/A   Clear
2:13 AM 44.6 °F 41.0 °F 87% 30.01 in 10.0 mi Calm Calm - N/A   Clear
2:34 AM 44.6 °F 39.2 °F 81% 30.02 in 10.0 mi Calm Calm - N/A   Clear
2:54 AM 46.4 °F 41.0 °F 81% 30.02 in 10.0 mi Calm Calm - N/A   Clear
3:13 AM 48.2 °F 42.8 °F 82% 30.02 in 10.0 mi Calm Calm - N/A   Clear
3:34 AM 44.6 °F 39.2 °F 81% 30.02 in 10.0 mi Calm Calm - N/A   Clear
3:54 AM 46.4 °F 41.0 °F 81% 30.03 in 10.0 mi Calm Calm - N/A   Clear
4:13 AM 44.6 °F 39.2 °F 81% 30.03 in 10.0 mi Calm Calm - N/A   Clear
4:34 AM 44.6 °F 39.2 °F 81% 30.03 in 10.0 mi Calm Calm - N/A   Clear
4:53 AM 42.8 °F 39.2 °F 87% 30.03 in 10.0 mi Calm Calm - N/A   Clear
5:14 AM 42.8 °F 39.2 °F 87% 30.03 in 10.0 mi Calm Calm - N/A   Clear
5:34 AM 42.8 °F 39.2 °F 87% 30.02 in 10.0 mi Calm Calm - N/A   Clear
5:54 AM 42.8 °F 41.0 °F 93% 30.03 in 10.0 mi Calm Calm - N/A   Clear
6:14 AM 42.8 °F 41.0 °F 93% 30.03 in 10.0 mi Calm Calm - N/A   Clear
6:34 AM 42.8 °F 39.2 °F 87% 30.04 in 10.0 mi Calm Calm - N/A   Clear
6:45 AM 42.8 °F 41.0 °F 93% 30.03 in 10.0 mi Calm Calm - N/A   Clear
6:54 AM 42.8 °F 41.0 °F 93% 30.04 in 10.0 mi Calm Calm - N/A   Clear
8:45 AM 57.2 °F 46.4 °F 67% 30.04 in 10.0 mi SSE 4.6 mph - N/A   Clear
9:45 AM 59.0 °F 42.8 °F 55% 30.04 in 10.0 mi SE 5.8 mph - N/A   Clear
10:45 AM 66.2 °F 44.6 °F 46% 30.04 in 10.0 mi SE 8.1 mph - N/A   Scattered Clouds
11:55 AM 71.6 °F 37.4 °F 29% 30.02 in 10.0 mi ESE 9.2 mph - N/A   Scattered Clouds
12:45 PM 75.2 °F 37.4 °F 25% 30.02 in 10.0 mi ESE 9.2 mph - N/A   Scattered Clouds
1:45 PM 73.4 °F 37.4 °F 27% 29.99 in 10.0 mi SE 9.2 mph - N/A   Overcast
2:45 PM 75.2 °F 33.8 °F 22% 29.94 in 10.0 mi SE 16.1 mph 23.0 mph N/A   Scattered Clouds
3:45 PM 73.4 °F 39.2 °F 29% 29.91 in 10.0 mi SE 9.2 mph - N/A   Mostly Cloudy
4:45 PM 75.2 °F 39.2 °F 27% 29.88 in 10.0 mi SE 17.3 mph 23.0 mph N/A   Mostly Cloudy
5:45 PM 73.4 °F 39.2 °F 29% 29.87 in 10.0 mi SE 15.0 mph 23.0 mph N/A   Mostly Cloudy
6:45 PM 66.2 °F 50.0 °F 56% 29.90 in 10.0 mi NNE 13.8 mph - N/A   Overcast
8:45 PM 59.0 °F 55.4 °F 88% 29.90 in 10.0 mi NNW 8.1 mph - N/A Thunderstorm Thunderstorm
9:14 PM 57.2 °F 53.6 °F 88% 29.94 in 10.0 mi NNE 6.9 mph - N/A Rain Rain
9:34 PM 57.2 °F 53.6 °F 88% 29.93 in 7.0 mi NNE 10.4 mph - 0.08 in Rain Heavy Rain
9:54 PM 57.2 °F 53.6 °F 88% 29.93 in 3.0 mi East 15.0 mph 20.7 mph 0.39 in Rain Heavy Rain
10:14 PM 57.2 °F 55.4 °F 94% 29.89 in 10.0 mi East 18.4 mph - 0.04 in Rain Heavy Rain
10:34 PM 57.2 °F 55.4 °F 94% 29.88 in 10.0 mi ESE 12.7 mph 23.0 mph 0.11 in Rain Rain
10:54 PM 57.2 °F 55.4 °F 94% 29.87 in 10.0 mi ESE 12.7 mph - 0.14 in Rain Light Rain
11:14 PM 57.2 °F 55.4 °F 94% 29.86 in 10.0 mi East 12.7 mph - 0.02 in Rain Rain
11:34 PM 57.2 °F 55.4 °F 94% 29.87 in 10.0 mi East 8.1 mph 11.5 mph 0.05 in Rain Rain
11:54 PM 57.2 °F 55.4 °F 94% 29.85 in 10.0 mi East 9.2 mph - 0.08 in Rain Light Rain